Change the Weather History Date:

Monday, October 31, 2011

  Actual Average Record
Temperature  
Mean Temperature 48 °F -  
Max Temperature 53 °F 49 °F 69 °F (2008)
Min Temperature 44 °F 34 °F 21 °F (2000)
Degree Days  
Heating Degree Days 16    
Moisture  
Dew Point 39 °F    
Average Humidity 71    
Maximum Humidity 87    
Minimum Humidity 51    
Precipitation  
Precipitation 0.00 in - - ()
Sea Level Pressure  
Sea Level Pressure 30.03 in    
Wind  
Wind Speed 9 mph (South)    
Max Wind Speed 17 mph    
Max Gust Speed 23 mph    
Visibility 10 miles    
Events Rain    
Averages and records for this station are not official NWS values.
T = Trace of Precipitation, MM = Missing Value Source: NWS Daily Summary

Daily Weather History Graph

Daily Weather History Graph

Search for Another Location

Airport or City:

Trip Planner

Search our weather history database for the weather conditions in past years. The results will help you decide how hot, cold, wet, or windy it might be!

Date:

Astronomy

Oct. 31, 2011 Rise Set
Actual Time 8:09 AM EDT 6:24 PM EDT
Civil Twilight 7:38 AM EDT 6:54 PM EDT
Nautical Twilight 7:04 AM EDT 7:28 PM EDT
Astronomical Twilight 6:30 AM EDT 8:02 PM EDT
Moon 1:20 PM EDT (10/31) 10:54 PM EDT (10/31)
Length of Visible Light 11h 15m
Length of Day
10h 15m
Waxing Crescent, 29% of the Moon is Illuminated
Oct 31
Waxing Crescent
Nov 2
First Quarter
Nov 10
Full
Nov 18
Last Quarter
Nov 25
New

Hourly Weather History & Observations

Time (EDT) Temp. Windchill Dew Point Humidity Pressure Visibility Wind Dir Wind Speed Gust Speed Precip Events Conditions
12:13 AM 46.4 °F 43.5 °F 35.6 °F 66% 30.05 in 10.0 mi SSE 5.8 mph - N/A   Overcast
12:34 AM 46.4 °F 42.4 °F 35.6 °F 66% 30.05 in 10.0 mi South 8.1 mph - N/A   Overcast
12:53 AM 46.4 °F 41.5 °F 35.6 °F 66% 30.05 in 10.0 mi South 10.4 mph 16.1 mph N/A   Overcast
1:13 AM 48.2 °F - 35.6 °F 62% 30.05 in 10.0 mi South 11.5 mph 18.4 mph N/A   Overcast
1:34 AM 46.4 °F 40.4 °F 37.4 °F 71% 30.05 in 10.0 mi South 13.8 mph 20.7 mph N/A Rain Light Rain
1:53 AM 48.2 °F - 37.4 °F 66% 30.05 in 10.0 mi South 12.7 mph 23.0 mph N/A   Overcast
2:13 AM 46.4 °F 39.5 °F 37.4 °F 71% 30.05 in 10.0 mi South 17.3 mph 21.9 mph N/A   Light Drizzle
2:34 AM 46.4 °F 40.7 °F 37.4 °F 71% 30.05 in 10.0 mi SSW 12.7 mph 21.9 mph N/A   Drizzle
2:53 AM 44.6 °F 39.2 °F 41.0 °F 87% 30.05 in 10.0 mi SSW 10.4 mph 17.3 mph N/A   Drizzle
3:13 AM 44.6 °F 41.4 °F 41.0 °F 87% 30.05 in 10.0 mi South 5.8 mph - N/A   Drizzle
3:34 AM 44.6 °F 39.7 °F 41.0 °F 87% 30.05 in 10.0 mi South 9.2 mph - N/A Rain Light Rain
3:53 AM 44.6 °F 40.2 °F 41.0 °F 87% 30.04 in 10.0 mi South 8.1 mph - N/A   Drizzle
4:13 AM 44.6 °F 40.7 °F 41.0 °F 87% 30.04 in 10.0 mi South 6.9 mph - N/A   Drizzle
4:33 AM 44.6 °F 41.4 °F 41.0 °F 87% 30.03 in 10.0 mi SSE 5.8 mph - N/A   Drizzle
4:53 AM 44.6 °F 40.2 °F 41.0 °F 87% 30.03 in 10.0 mi South 8.1 mph - N/A   Drizzle
5:13 AM 44.6 °F 39.7 °F 41.0 °F 87% 30.03 in 10.0 mi South 9.2 mph - N/A   Drizzle
5:34 AM 44.6 °F 39.7 °F 41.0 °F 87% 30.03 in 10.0 mi South 9.2 mph 16.1 mph N/A   Overcast
5:53 AM 44.6 °F 38.8 °F 41.0 °F 87% 30.03 in 10.0 mi South 11.5 mph - N/A   Overcast
6:13 AM 46.4 °F 40.4 °F 39.2 °F 76% 30.03 in 10.0 mi South 13.8 mph 18.4 mph N/A   Overcast
6:34 AM 46.4 °F 41.9 °F 41.0 °F 81% 30.03 in 10.0 mi South 9.2 mph 18.4 mph N/A   Light Drizzle
6:53 AM 46.4 °F 41.5 °F 41.0 °F 81% 30.03 in 10.0 mi South 10.4 mph - N/A   Overcast
7:13 AM 46.4 °F 42.4 °F 41.0 °F 81% 30.02 in 10.0 mi South 8.1 mph - N/A   Overcast
7:33 AM 46.4 °F 42.9 °F 39.2 °F 76% 30.03 in 10.0 mi South 6.9 mph - N/A   Overcast
7:53 AM 44.6 °F 41.4 °F 39.2 °F 81% 30.02 in 10.0 mi South 5.8 mph - N/A   Scattered Clouds
8:13 AM 46.4 °F 43.5 °F 39.2 °F 76% 30.02 in 10.0 mi South 5.8 mph - N/A   Mostly Cloudy
8:33 AM 46.4 °F 43.5 °F 39.2 °F 76% 30.03 in 10.0 mi South 5.8 mph - N/A   Overcast
8:53 AM 46.4 °F 45.2 °F 41.0 °F 81% 30.03 in 10.0 mi South 3.5 mph - N/A   Overcast
9:13 AM 46.4 °F 44.3 °F 41.0 °F 81% 30.03 in 10.0 mi SSW 4.6 mph - N/A   Overcast
9:33 AM 46.4 °F 41.5 °F 41.0 °F 81% 30.03 in 10.0 mi South 10.4 mph 17.3 mph N/A   Overcast
9:53 AM 48.2 °F - 41.0 °F 76% 30.04 in 10.0 mi South 9.2 mph - N/A   Overcast
10:13 AM 48.2 °F - 39.2 °F 71% 30.04 in 10.0 mi South 8.1 mph - N/A   Overcast
10:33 AM 46.4 °F 43.5 °F 41.0 °F 81% 30.03 in 10.0 mi SSE 5.8 mph - N/A   Overcast
10:53 AM 48.2 °F - 41.0 °F 76% 30.03 in 10.0 mi South 8.1 mph 16.1 mph N/A   Overcast
11:14 AM 50.0 °F - 41.0 °F 71% 30.03 in 10.0 mi South 10.4 mph 17.3 mph N/A   Overcast
11:33 AM 50.0 °F - 41.0 °F 71% 30.03 in 10.0 mi South 15.0 mph 19.6 mph N/A   Overcast
11:53 AM 51.8 °F - 39.2 °F 62% 30.04 in 10.0 mi South 12.7 mph 18.4 mph N/A   Overcast
12:14 PM 50.0 °F - 39.2 °F 66% 30.04 in 10.0 mi South 10.4 mph 16.1 mph N/A   Scattered Clouds
12:33 PM 51.8 °F - 39.2 °F 62% 30.03 in 10.0 mi South 8.1 mph - N/A   Mostly Cloudy
12:53 PM 51.8 °F - 39.2 °F 62% 30.03 in 10.0 mi South 9.2 mph - N/A   Scattered Clouds
1:14 PM 51.8 °F - 37.4 °F 58% 30.03 in 10.0 mi South 6.9 mph - N/A   Scattered Clouds
1:33 PM 51.8 °F - 39.2 °F 62% 30.02 in 10.0 mi South 13.8 mph 23.0 mph N/A   Mostly Cloudy
1:53 PM 53.6 °F - 39.2 °F 58% 30.01 in 10.0 mi South 11.5 mph - N/A   Mostly Cloudy
2:14 PM 53.6 °F - 35.6 °F 51% 30.01 in 10.0 mi SSW 8.1 mph - N/A   Scattered Clouds
2:33 PM 53.6 °F - 37.4 °F 54% 30.01 in 10.0 mi SSE 9.2 mph - N/A   Clear
2:53 PM 53.6 °F - 37.4 °F 54% 30.00 in 10.0 mi South 8.1 mph - N/A   Clear
3:14 PM 53.6 °F - 37.4 °F 54% 30.01 in 10.0 mi SSW 10.4 mph 16.1 mph N/A   Clear
3:33 PM 53.6 °F - 35.6 °F 51% 30.01 in 10.0 mi South 10.4 mph 16.1 mph N/A   Clear
3:53 PM 53.6 °F - 37.4 °F 54% 30.01 in 10.0 mi SSW 12.7 mph - N/A   Clear
4:13 PM 53.6 °F - 35.6 °F 51% 30.01 in 10.0 mi South 8.1 mph - N/A   Clear
4:33 PM 53.6 °F - 35.6 °F 51% 30.01 in 10.0 mi South 9.2 mph - N/A   Clear
4:53 PM 53.6 °F - 35.6 °F 51% 30.02 in 10.0 mi SSW 11.5 mph - N/A   Clear
5:13 PM 53.6 °F - 35.6 °F 51% 30.03 in 10.0 mi SSW 9.2 mph - N/A   Scattered Clouds
5:33 PM 53.6 °F - 35.6 °F 51% 30.03 in 10.0 mi SSW 9.2 mph - N/A   Clear
5:53 PM 51.8 °F - 35.6 °F 54% 30.03 in 10.0 mi South 5.8 mph - N/A   Clear
6:14 PM 51.8 °F - 35.6 °F 54% 30.03 in 10.0 mi South 4.6 mph - N/A   Clear
6:33 PM 50.0 °F - 35.6 °F 58% 30.04 in 10.0 mi South 4.6 mph - N/A   Clear
6:53 PM 50.0 °F - 35.6 °F 58% 30.05 in 10.0 mi SSE 3.5 mph - N/A   Clear
7:13 PM 48.2 °F - 37.4 °F 66% 30.05 in 10.0 mi SE 3.5 mph - N/A   Clear
7:33 PM 44.6 °F - 37.4 °F 76% 30.06 in 10.0 mi Calm Calm - N/A   Clear
7:54 PM 42.8 °F - 35.6 °F 76% 30.07 in 10.0 mi Calm Calm - N/A   Clear
8:13 PM 44.6 °F 41.4 °F 39.2 °F 81% 30.07 in 10.0 mi SSE 5.8 mph - N/A   Clear
8:34 PM 46.4 °F 44.3 °F 41.0 °F 81% 30.08 in 10.0 mi SSE 4.6 mph - N/A   Clear
8:53 PM 46.4 °F 45.2 °F 39.2 °F 76% 30.09 in 10.0 mi South 3.5 mph - N/A   Clear
9:13 PM 44.6 °F 41.4 °F 39.2 °F 81% 30.09 in 10.0 mi South 5.8 mph - N/A   Clear
9:34 PM 44.6 °F 41.4 °F 39.2 °F 81% 30.10 in 10.0 mi South 5.8 mph - N/A   Clear
9:53 PM 44.6 °F 41.4 °F 37.4 °F 76% 30.10 in 10.0 mi South 5.8 mph - N/A   Clear
10:13 PM 42.8 °F 40.1 °F 37.4 °F 81% 30.11 in 10.0 mi SSW 4.6 mph - N/A   Clear
10:34 PM 42.8 °F 40.1 °F 37.4 °F 81% 30.11 in 10.0 mi South 4.6 mph - N/A   Clear
10:53 PM 42.8 °F 40.1 °F 39.2 °F 87% 30.11 in 10.0 mi South 4.6 mph - N/A   Clear
11:13 PM 42.8 °F 41.1 °F 39.2 °F 87% 30.11 in 10.0 mi South 3.5 mph - N/A   Clear
11:34 PM 42.8 °F 41.1 °F 39.2 °F 87% 30.11 in 10.0 mi South 3.5 mph - N/A   Clear
11:53 PM 41.0 °F 39.0 °F 37.4 °F 87% 30.12 in 10.0 mi SSW 3.5 mph - N/A   Clear